Wind_Speed
29 29 29 28 27 26 25 24 24 23 21 20 19 16 16 15 14 13 13 11 10 9 8 8 7 7 7 7 8 9 9 9 9 9 11 13 14 14 15 15 15 15 16 17
30 31 31 30 28 28 27 26 25 25 25 24 22 21 21 20 18 16 15 15 15 14 13 11 11 11 10 10 11 11 12 12 11 12 12 13 15 15 16 16 16 16 16 17
31 32 32 32 31 30 29 28 28 28 27 25 24 22 23 22 21 20 19 18 17 16 16 15 14 14 14 14 14 14 14 15 15 14 15 15 16 16 16 17 18 18 18 18
31 32 33 31 31 32 32 30 30 30 29 28 25 25 23 23 21 21 19 18 18 18 18 18 17 18 18 18 18 18 18 18 18 17 17 17 18 18 18 19 19 19 20 20
31 32 33 32 32 32 33 32 32 31 30 27 26 27 26 24 23 22 20 19 19 20 21 21 21 21 21 22 21 21 21 20 20 20 20 20 21 20 20 21 21 21 22 22
32 32 32 32 32 32 32 32 32 31 29 28 27 28 27 26 25 24 23 22 22 22 22 23 23 24 24 24 24 24 24 24 23 23 23 23 23 23 23 23 24 24 24 24
33 33 33 32 31 30 31 31 29 30 30 29 29 28 27 28 28 28 26 26 26 25 25 26 26 26 26 26 26 27 27 27 27 27 26 26 26 25 25 26 27 27 27 27
33 34 33 32 32 31 31 30 30 30 29 29 29 29 29 30 29 29 29 29 29 28 28 29 29 28 28 29 29 29 30 30 29 29 28 29 29 29 28 28 29 29 29 29
32 32 32 32 32 32 33 33 33 32 32 31 31 32 32 33 33 32 31 31 32 31 30 30 31 31 31 31 31 31 31 32 32 31 31 31 32 31 31 30 30 30 30 30
32 31 32 32 32 33 34 34 34 35 35 33 33 34 35 34 34 33 33 33 33 33 33 32 32 32 33 33 33 33 33 33 33 33 32 33 33 32 32 32 32 32 32 31
32 31 31 31 31 32 32 32 34 35 35 35 36 36 36 35 35 34 33 33 34 35 34 34 34 34 34 34 33 33 33 33 33 34 34 34 33 33 34 34 34 33 33 33
32 31 31 31 32 32 32 32 34 35 35 36 37 37 36 37 36 36 35 35 36 36 36 36 36 35 35 35 34 34 33 33 34 34 34 34 34 35 36 35 35 34 33 33
33 33 34 33 33 34 34 35 36 36 36 37 38 38 39 39 38 38 38 38 37 37 37 37 36 36 36 36 35 35 35 34 34 34 34 34 34 35 35 34 35 35 35 36
35 35 35 36 36 36 37 37 38 38 39 39 39 39 39 40 40 40 40 38 38 37 37 36 36 36 36 36 36 35 35 35 34 34 34 33 33 33 34 34 34 35 35 35
35 36 36 37 38 38 39 39 38 39 40 39 39 39 39 40 40 39 38 37 36 36 36 36 36 36 36 36 36 36 35 35 34 34 33 33 33 33 33 34 34 34 35 35
35 35 36 37 38 37 37 37 38 38 38 39 39 38 38 37 35 35 35 36 35 35 35 35 35 35 36 36 36 35 35 34 34 34 34 34 34 34 35 35 35 35 35 35
34 35 35 35 35 35 35 35 35 36 37 37 38 38 36 36 35 35 34 34 34 34 34 34 34 35 35 35 35 35 34 34 34 34 34 34 34 34 34 35 35 36 36 35
33 33 34 34 34 34 32 32 33 34 34 33 34 34 34 34 33 33 33 32 33 33 33 33 34 35 34 34 34 34 33 33 33 34 34 35 35 35 35 35 35 35 35 34
29 31 32 33 33 33 33 32 32 32 32 31 31 31 30 30 30 31 31 31 30 30 30 32 32 33 33 33 33 33 33 33 33 34 34 34 34 35 36 35 35 35 35 35
27 29 29 30 31 31 31 30 30 30 30 29 29 30 30 30 29 29 29 30 30 31 32 32 31 31 32 32 32 32 33 33 33 33 33 33 33 34 34 35 34 35 35 34
25 26 27 27 28 28 28 27 27 28 28 28 28 28 27 28 27 27 27 28 28 29 29 29 29 29 29 30 31 31 32 33 33 33 33 32 32 32 33 33 33 33 33 34
24 24 24 25 26 26 26 27 27 27 27 26 26 24 25 25 25 24 24 25 25 25 26 27 27 28 29 29 30 31 32 33 32 31 31 31 31 32 32 33 33 33 33 33
22 23 23 23 24 24 25 25 25 26 25 25 24 24 23 23 22 22 23 23 24 24 25 26 26 27 28 29 29 30 31 30 30 30 30 31 32 32 32 32 32 32 31 32
20 21 22 21 22 23 23 23 23 23 23 23 23 22 22 21 22 22 23 23 24 24 25 25 26 26 27 27 27 27 27 28 28 29 30 31 32 31 31 31 31 32 32 32
16 16 16 17 17 18 19 20 20 20 20 21 21 20 20 20 21 21 22 22 22 23 23 24 25 25 25 26 25 26 26 26 27 28 29 31 31 30 30 30 30 31 32 32
14 14 14 15 15 15 16 17 17 17 17 18 18 18 18 19 20 20 21 21 21 21 22 22 23 24 24 24 25 25 25 25 26 27 27 28 28 29 30 30 31 31 31 32
13 14 13 13 14 14 15 15 15 15 16 16 17 17 18 18 19 20 20 21 21 21 21 21 21 21 22 22 22 23 24 25 26 27 27 27 28 28 29 29 29 29 29 30
Wind_Direction
225 224 224 227 229 233 237 240 244 246 251 257 263 265 266 272 270 269 267 270 271 270 269 276 277 279 284 292 299 306 309 309 312 313 317 321 323 324 325 328 330 330 332 334
227 228 227 229 232 235 237 241 243 246 249 252 258 261 263 267 269 269 269 273 274 275 270 271 276 279 281 283 285 290 297 301 303 310 314 316 318 322 323 323 324 325 327 328
229 228 228 229 231 235 238 240 244 247 250 251 252 258 263 266 263 267 271 274 272 271 275 271 273 276 280 280 281 283 288 294 300 304 307 308 310 313 316 317 316 316 319 321
231 230 231 230 232 235 237 240 245 249 251 252 254 259 261 266 265 267 272 270 264 269 272 271 271 273 276 275 277 280 282 287 290 292 297 300 302 305 306 308 308 310 312 314
233 233 233 230 233 236 238 240 245 250 251 253 254 257 258 261 262 262 263 264 265 265 266 268 270 272 273 273 274 277 279 281 285 287 291 293 295 300 301 303 305 306 306 308
235 235 234 230 234 239 242 243 245 248 251 254 255 258 260 262 261 262 262 263 265 264 264 265 268 271 272 273 274 275 278 280 279 283 287 289 291 294 297 299 302 304 303 304
237 237 237 234 235 241 244 246 247 249 252 255 257 261 265 265 265 266 266 265 264 263 264 265 268 270 271 271 272 273 275 277 277 279 282 285 287 289 292 295 297 300 303 305
237 239 239 238 239 241 245 249 249 250 251 254 258 262 265 266 268 269 268 267 266 264 264 266 267 269 270 270 270 272 273 275 277 277 279 281 283 286 288 291 294 297 300 302
238 241 242 241 241 243 245 247 249 251 252 254 257 260 264 267 269 269 268 265 263 263 265 265 267 269 269 270 269 270 273 275 276 276 277 279 281 284 286 288 291 294 297 298
239 241 243 244 245 246 247 247 249 253 255 258 260 261 262 263 265 265 265 264 263 264 264 265 267 269 269 270 271 271 272 275 276 276 278 280 281 283 285 286 288 292 296 299
240 243 244 246 250 251 251 251 252 253 256 260 261 262 262 262 262 262 263 263 263 264 265 266 267 269 269 271 272 273 274 274 275 277 279 280 280 282 283 283 285 288 291 294
242 244 247 250 252 254 255 255 255 255 256 260 263 265 265 264 263 263 264 265 265 266 266 267 268 269 270 270 272 274 275 276 277 278 279 279 280 281 283 284 286 287 288 290
243 246 250 252 254 257 258 258 258 259 260 263 265 266 267 266 265 264 265 265 265 266 266 266 267 267 268 269 270 273 275 277 278 279 280 281 281 282 283 285 287 288 287 289
246 249 252 254 256 259 261 261 261 262 263 264 265 266 266 266 267 266 266 266 265 265 265 265 265 265 267 268 270 272 274 276 278 279 279 281 282 283 284 286 287 288 288 289
248 250 253 256 258 260 262 263 263 264 265 266 265 265 266 268 267 266 265 266 265 264 263 263 263 264 266 268 269 272 275 276 276 277 279 281 283 283 283 284 287 289 288 289
248 252 254 257 259 262 263 264 266 267 267 266 266 265 266 267 265 265 265 265 264 264 263 263 264 265 266 267 269 271 273 274 276 277 278 280 281 281 282 283 285 288 290 290
253 253 256 257 259 261 264 265 267 268 269 269 267 265 264 264 264 265 264 264 263 263 263 262 263 264 265 267 268 269 271 274 275 276 277 279 281 281 282 284 286 288 290 291
257 258 258 259 259 261 265 266 268 268 270 270 267 264 263 263 263 264 264 263 263 263 262 261 262 263 265 266 267 268 271 273 275 276 277 279 280 281 282 283 286 288 289 290
258 260 262 264 264 265 267 268 269 269 271 269 264 264 264 265 265 264 263 262 261 261 260 260 261 263 264 265 266 268 270 273 275 276 277 278 280 282 284 286 287 288 289 289
260 261 263 267 267 269 270 270 270 270 270 270 267 265 264 264 263 262 260 261 261 261 261 261 261 262 263 264 266 269 272 273 275 276 277 279 281 284 285 286 287 288 288 288
261 262 265 268 268 269 271 272 273 273 272 272 271 268 264 262 261 261 261 261 262 262 263 262 261 262 264 265 267 269 272 274 275 277 278 280 282 284 286 287 288 287 288 289
264 266 269 268 268 268 270 271 272 273 272 270 270 269 266 264 263 262 262 262 263 264 263 263 262 262 264 266 269 270 272 274 275 277 278 279 281 283 286 287 287 287 288 289
269 271 273 270 269 268 269 270 271 270 269 269 268 267 265 264 264 264 263 263 265 265 264 264 264 264 265 266 268 271 273 274 274 275 277 279 281 283 285 286 286 287 288 289
274 275 275 274 272 270 269 269 271 269 267 267 266 265 263 263 265 265 265 264 264 265 265 266 265 265 266 267 268 270 272 274 274 275 278 280 283 284 285 285 286 287 288 289
278 279 278 275 274 273 274 271 271 270 266 264 264 264 263 264 265 264 263 264 265 266 266 266 266 266 266 266 268 272 274 275 277 279 282 284 285 286 287 287 288 289 289 289
283 282 282 279 279 279 280 277 274 272 269 265 263 264 266 269 269 267 264 265 266 268 268 268 270 271 270 271 272 274 276 278 281 285 286 288 290 291 291 291 291 291 291 291
289 288 285 283 283 283 284 283 278 274 271 267 266 266 268 270 271 270 270 270 268 269 269 270 271 272 273 274 275 278 280 282 284 286 288 289 291 293 293 293 292 292 293 293
Height
5882 5885 5887 5889 5892 5894 5896 5897 5898 5900 5901 5902 5902 5903 5904 5905 5906 5906 5907 5907 5907 5908 5908 5908 5908 5907 5907 5907 5906 5905 5904 5902 5900 5899 5897 5896 5894 5892 5890 5888 5886 5883 5881 5878
5876 5878 5881 5884 5886 5888 5890 5892 5893 5895 5896 5897 5898 5899 5900 5901 5902 5902 5903 5903 5904 5905 5905 5904 5904 5904 5904 5904 5903 5902 5901 5899 5898 5896 5895 5893 5891 5889 5887 5885 5883 5880 5878 5875
5869 5872 5875 5878 5881 5883 5884 5885 5887 5889 5891 5892 5893 5894 5895 5896 5896 5896 5897 5898 5899 5899 5899 5900 5900 5900 5900 5899 5899 5898 5897 5896 5894 5892 5891 5890 5888 5886 5884 5881 5879 5877 5874 5871
5863 5866 5869 5875 5875 5876 5878 5880 5881 5883 5884 5886 5887 5888 5889 5890 5891 5891 5892 5892 5892 5893 5894 5895 5895 5895 5895 5895 5895 5894 5893 5892 5890 5888 5887 5886 5884 5882 5880 5877 5874 5872 5869 5867
5856 5859 5862 5866 5867 5869 5871 5873 5875 5876 5877 5879 5880 5882 5883 5884 5884 5885 5885 5887 5887 5888 5889 5889 5889 5889 5889 5889 5889 5888 5887 5886 5884 5883 5882 5880 5879 5877 5875 5872 5869 5866 5864 5861
5849 5852 5855 5860 5861 5862 5865 5865 5868 5869 5871 5872 5874 5874 5877 5877 5878 5878 5878 5879 5880 5881 5882 5882 5883 5882 5883 5883 5882 5882 5881 5879 5878 5877 5876 5874 5873 5871 5869 5866 5863 5860 5858 5855
5841 5844 5847 5852 5854 5855 5858 5859 5861 5862 5864 5865 5866 5868 5869 5869 5869 5870 5870 5871 5871 5872 5874 5875 5875 5876 5876 5875 5875 5875 5874 5873 5872 5870 5869 5868 5866 5864 5862 5860 5857 5854 5851 5848
5833 5837 5842 5844 5846 5848 5849 5851 5853 5855 5856 5858 5859 5860 5861 5861 5861 5860 5861 5863 5864 5864 5866 5866 5867 5868 5868 5867 5867 5867 5866 5865 5864 5862 5861 5860 5858 5857 5855 5853 5850 5847 5844 5842
5827 5831 5833 5835 5838 5840 5842 5843 5845 5847 5848 5850 5852 5852 5853 5853 5853 5852 5852 5853 5855 5856 5857 5858 5858 5858 5859 5858 5857 5857 5857 5856 5855 5854 5852 5851 5850 5848 5846 5844 5842 5839 5837 5833
5819 5822 5824 5827 5829 5831 5833 5835 5837 5838 5839 5841 5842 5843 5843 5844 5844 5843 5843 5844 5845 5846 5847 5848 5849 5849 5849 5849 5849 5849 5848 5847 5846 5845 5844 5842 5840 5839 5837 5835 5833 5831 5828 5825
5812 5815 5817 5820 5822 5823 5825 5826 5827 5829 5830 5830 5831 5832 5833 5833 5833 5833 5834 5834 5835 5837 5837 5838 5839 5839 5839 5839 5839 5839 5838 5837 5837 5836 5834 5833 5831 5829 5828 5826 5824 5822 5820 5817
5805 5807 5810 5812 5813 5815 5816 5818 5818 5819 5820 5820 5820 5821 5822 5822 5822 5823 5823 5823 5825 5826 5827 5828 5828 5829 5829 5829 5829 5829 5828 5828 5827 5826 5825 5823 5821 5820 5818 5816 5814 5813 5810 5808
5797 5798 5800 5802 5804 5805 5806 5807 5808 5808 5809 5810 5811 5811 5811 5812 5812 5812 5812 5813 5814 5815 5816 5817 5817 5818 5819 5819 5819 5819 5818 5818 5817 5816 5815 5813 5812 5811 5809 5807 5804 5802 5800 5798
5788 5790 5791 5793 5794 5796 5796 5797 5797 5798 5798 5799 5799 5799 5799 5799 5799 5800 5801 5801 5801 5802 5804 5805 5805 5807 5807 5808 5808 5808 5808 5807 5806 5806 5805 5803 5802 5801 5799 5797 5795 5793 5790 5788
5778 5780 5782 5784 5785 5785 5786 5786 5786 5786 5787 5787 5787 5787 5788 5787 5787 5788 5789 5789 5790 5791 5792 5793 5794 5795 5796 5797 5797 5797 5797 5797 5796 5796 5795 5794 5792 5790 5789 5787 5785 5783 5780 5777
5769 5771 5773 5774 5775 5775 5775 5775 5775 5775 5774 5774 5774 5775 5775 5775 5776 5777 5777 5778 5779 5780 5781 5783 5784 5785 5786 5786 5786 5787 5787 5787 5786 5786 5785 5783 5782 5780 5779 5777 5775 5773 5770 5767
5760 5762 5763 5764 5765 5765 5764 5763 5763 5763 5762 5762 5761 5762 5763 5764 5765 5766 5767 5768 5769 5770 5771 5772 5774 5774 5775 5776 5776 5777 5777 5776 5776 5775 5774 5773 5772 5770 5768 5766 5764 5762 5759 5757
5751 5752 5753 5754 5754 5754 5753 5752 5752 5752 5751 5749 5749 5750 5751 5753 5754 5756 5757 5758 5759 5760 5761 5762 5763 5764 5765 5766 5766 5766 5766 5766 5765 5765 5764 5763 5761 5759 5758 5756 5754 5751 5749 5747
5742 5742 5743 5743 5743 5743 5743 5742 5742 5741 5740 5740 5740 5740 5742 5743 5744 5746 5747 5748 5749 5750 5750 5751 5752 5753 5754 5755 5755 5756 5756 5755 5755 5754 5753 5752 5750 5749 5747 5745 5742 5741 5738 5736
5734 5734 5734 5734 5734 5733 5733 5732 5732 5732 5732 5731 5731 5731 5732 5734 5735 5736 5737 5738 5739 5740 5741 5741 5741 5743 5744 5744 5745 5745 5745 5745 5745 5744 5743 5742 5740 5739 5737 5734 5732 5730 5727 5725
5726 5726 5725 5725 5725 5725 5724 5724 5724 5723 5723 5723 5723 5722 5723 5725 5726 5727 5728 5729 5730 5730 5730 5731 5732 5733 5734 5735 5735 5735 5735 5735 5734 5733 5732 5731 5730 5728 5726 5724 5721 5719 5717 5714
5718 5718 5717 5717 5717 5717 5716 5716 5716 5715 5715 5716 5716 5716 5716 5717 5718 5719 5720 5721 5721 5721 5721 5722 5722 5723 5724 5725 5725 5725 5725 5724 5724 5723 5722 5721 5719 5717 5715 5713 5711 5709 5707 5704
5711 5710 5710 5709 5709 5709 5708 5708 5707 5707 5708 5708 5708 5709 5709 5710 5711 5712 5713 5714 5713 5713 5713 5713 5714 5715 5715 5715 5715 5715 5715 5714 5714 5713 5712 5710 5709 5707 5705 5703 5700 5698 5696 5693
5704 5703 5702 5701 5701 5700 5700 5700 5699 5699 5700 5700 5700 5701 5702 5703 5704 5705 5705 5705 5706 5706 5706 5706 5706 5706 5706 5706 5706 5706 5706 5705 5704 5703 5702 5700 5698 5696 5694 5692 5690 5687 5685 5683
5698 5697 5696 5695 5694 5693 5693 5693 5693 5692 5692 5693 5694 5695 5696 5696 5697 5697 5697 5698 5698 5698 5698 5698 5698 5698 5697 5697 5697 5697 5697 5696 5695 5693 5692 5690 5688 5686 5684 5681 5679 5677 5675 5672
5693 5692 5691 5690 5689 5688 5687 5687 5686 5686 5686 5687 5688 5689 5690 5690 5690 5690 5690 5690 5691 5691 5691 5691 5690 5690 5690 5689 5689 5689 5688 5687 5686 5684 5683 5680 5678 5676 5674 5671 5669 5667 5664 5662
5689 5687 5686 5686 5685 5684 5683 5682 5682 5682 5682 5683 5684 5684 5684 5684 5684 5683 5683 5683 5684 5684 5684 5683 5683 5683 5682 5682 5681 5681 5680 5679 5677 5675 5673 5671 5669 5667 5664 5662 5659 5657 5654 5652